User: anonymous   Login
Location: Kunchanapalle
(16.4623°N, 80.6176°E)
Time: 07:44:16
(UTC+00:00)
Language:

SL-08 R/B - Orbit

View from above orbital plane
View from above orbital plane
View from above satellite
View from above satellite

Ground track
Ground track

The orbit data is extracted from the following two-line orbital elements,

1 27819U 03023B   20299.96518299 +.00000011 +00000-0 -44692-5 0  9999
2 27819 082.9512 197.8088 0045036 244.0473 126.1357 13.74240213872233
Epoch (UTC): 25 October 2020 23:09:51
Eccentricity: 0.0045036
inclination: 82.9512°
perigee height: 951 km
apogee height: 1017 km
right ascension of ascending node: 197.8088°
argument of perigee: 244.0473°
revolutions per day: 13.74240213
mean anomaly at epoch: 126.1357°
orbit number at epoch: 87223

The dashed part of the orbit path shows where the satellite is in the earth's shadow,  

DLR